Simultaneous Nadir Overpasses (SNOs) Predictions

Prediction of SNOs near equator between AQUA and NPP Satellite Orbit:

Table of predicted SNOs near equator for the next 14.0 days since TLE Epoch: 11/13/2021
Index Date (AQUA) Time (AQUA) AQUA Lat,Lon Date (NPP) Time (NPP) NPP Lat,Lon Distance(km) Time Diff (sec)
1 11/13/2021 23:19:52 -5.20, 33.22 11/13/2021 23:10:09 -5.17, 33.09 14.78 583
2 11/14/2021 00:08:08 0.67,-158.19 11/13/2021 23:59:40 0.57,-158.58 44.68 508
3 11/14/2021 00:56:14 3.93, 10.45 11/14/2021 00:49:02 4.06, 9.79 74.43 432
4 11/16/2021 15:35:54 -3.52, 149.46 11/16/2021 15:26:39 -3.49, 149.24 25.66 555
5 11/16/2021 16:24:09 -1.07, -41.94 11/16/2021 16:16:09 -1.17, -42.43 55.38 480
6 11/16/2021 17:12:17 5.55, 126.68 11/16/2021 17:05:32 5.74, 125.93 85.02 405
7 11/19/2021 07:05:16 11.65, 95.94 11/19/2021 06:55:16 11.67, 95.81 13.88 600
8 11/19/2021 07:51:56 -1.85, -94.30 11/19/2021 07:43:09 -1.81, -94.62 36.59 527
9 11/19/2021 08:40:11 -2.74, 74.30 11/19/2021 08:32:39 -2.85, 73.71 66.18 452
10 11/19/2021 09:28:19 7.22,-117.08 11/19/2021 09:22:02 7.42,-117.93 95.44 377
11 11/21/2021 23:19:50 4.67,-146.68 11/21/2021 23:10:15 4.64,-146.83 17.26 575
12 11/22/2021 00:07:57 -0.13, 21.95 11/21/2021 23:59:38 -0.07, 21.53 47.44 499
13 11/22/2021 00:56:12 -4.46,-169.45 11/22/2021 00:49:08 -4.58,-170.13 76.85 424
14 11/24/2021 14:53:47 -29.95, 155.76 11/24/2021 14:43:47 -30.64, 155.30 88.27 600
15 11/24/2021 15:35:51 3.03, -30.44 11/24/2021 15:26:44 2.97, -30.69 28.25 547
16 11/24/2021 16:23:57 1.57, 138.20 11/24/2021 16:16:06 1.66, 137.68 58.27 471
17 11/24/2021 17:12:13 -6.10, -53.22 11/24/2021 17:05:37 -6.26, -53.99 87.53 396
